TimeAKST,TemperatureF,Dew PointF,Humidity,Sea Level PressureIn,VisibilityMPH,Wind Direction,Wind SpeedMPH,Gust SpeedMPH,PrecipitationIn,Events,Conditions,WindDirDegrees,DateUTC
12:13 AM,12.2,6.8,79,30.22,5.0,NNW,16.1,-,N/A,Snow,Light Snow,330,2013-11-28 09:13:00
12:33 AM,10.4,5.0,79,30.22,10.0,NNW,16.1,-,N/A,Snow,Light Snow,330,2013-11-28 09:33:00
12:55 AM,11.5,6.3,80,30.22,6.0,NNW,16.1,-,N/A,Snow,Light Snow,330,2013-11-28 09:55:00
1:55 AM,10.4,5.4,80,30.21,7.0,NNW,12.7,-,N/A,Snow,Light Snow,340,2013-11-28 10:55:00
2:13 AM,10.4,6.8,85,30.21,10.0,North,12.7,-,N/A,Snow,Light Snow,350,2013-11-28 11:13:00
2:53 AM,12.2,6.8,79,30.21,4.0,NNW,12.7,-,N/A,Snow,Light Snow,340,2013-11-28 11:53:00
2:55 AM,11.5,6.4,80,30.21,4.0,NNW,12.7,-,N/A,Snow,Light Snow,340,2013-11-28 11:55:00
3:55 AM,10.8,5.9,81,30.20,7.0,NNW,8.1,-,N/A,Snow,Light Snow,340,2013-11-28 12:55:00
4:33 AM,10.4,5.0,79,30.20,7.0,Variable,3.5,-,N/A,Snow,Light Snow Showers,0,2013-11-28 13:33:00
4:55 AM,10.6,4.8,78,30.20,10.0,Variable,5.8,-,N/A,Snow,Light Snow Showers,0,2013-11-28 13:55:00
5:13 AM,10.4,5.0,79,30.20,10.0,Variable,2.3,-,N/A,Snow,Light Snow Showers,0,2013-11-28 14:13:00
5:55 AM,10.0,4.8,79,30.20,7.0,North,8.1,-,N/A,Snow,Light Snow Showers,360,2013-11-28 14:55:00
6:13 AM,8.6,3.2,79,30.19,10.0,NNW,8.1,-,N/A,,Partly Cloudy,340,2013-11-28 15:13:00
6:33 AM,8.6,3.2,79,30.19,10.0,NNW,10.4,-,N/A,Snow,Light Snow Showers,340,2013-11-28 15:33:00
6:53 AM,8.6,3.2,79,30.19,10.0,NNW,9.2,-,N/A,,Clear,340,2013-11-28 15:53:00
6:55 AM,8.4,3.4,80,30.19,10.0,NNW,9.2,-,N/A,,Clear,340,2013-11-28 15:55:00
7:13 AM,8.6,5.0,85,30.19,10.0,NNW,9.2,-,N/A,Snow,Light Snow Showers,340,2013-11-28 16:13:00
7:54 AM,10.4,5.0,79,30.19,10.0,North,6.9,-,N/A,,Clear,10,2013-11-28 16:54:00
7:55 AM,10.4,4.6,78,30.19,10.0,North,9.2,-,N/A,,Clear,10,2013-11-28 16:55:00
8:14 AM,10.4,6.8,85,30.18,10.0,North,10.4,-,N/A,Snow,Light Snow Showers,360,2013-11-28 17:14:00
8:55 AM,9.9,5.2,81,30.19,10.0,North,2.3,-,N/A,Snow,Light Snow Showers,360,2013-11-28 17:55:00
9:14 AM,10.4,3.2,73,30.18,10.0,North,4.6,-,N/A,,Mostly Cloudy,360,2013-11-28 18:14:00
9:34 AM,10.4,3.2,73,30.18,10.0,North,4.6,-,N/A,,Scattered Clouds,360,2013-11-28 18:34:00
9:54 AM,10.4,3.2,73,30.18,10.0,North,3.5,-,N/A,,Mostly Cloudy,350,2013-11-28 18:54:00
9:55 AM,10.4,3.9,75,30.18,10.0,North,3.5,-,N/A,,Mostly Cloudy,350,2013-11-28 18:55:00
10:14 AM,10.4,5.0,79,30.18,10.0,North,3.5,-,N/A,,Scattered Clouds,360,2013-11-28 19:14:00
10:34 AM,10.4,3.2,73,30.18,10.0,North,4.6,-,N/A,Snow,Light Snow Showers,10,2013-11-28 19:34:00
10:54 AM,12.2,5.0,73,30.17,10.0,North,5.8,-,N/A,Snow,Light Snow Showers,10,2013-11-28 19:54:00
10:55 AM,12.4,4.1,69,30.17,10.0,North,6.9,-,N/A,Snow,Light Snow Showers,10,2013-11-28 19:55:00
11:55 AM,11.5,4.1,72,30.19,10.0,North,4.6,-,N/A,,Mostly Cloudy,360,2013-11-28 20:55:00
12:55 PM,12.7,5.9,74,30.19,10.0,West,9.2,-,N/A,,Mostly Cloudy,270,2013-11-28 21:55:00
1:14 PM,14.0,6.8,73,30.19,10.0,SSW,6.9,-,N/A,Snow,Light Snow Showers,200,2013-11-28 22:14:00
1:55 PM,10.9,5.0,77,30.17,10.0,ESE,4.6,-,N/A,Snow,Light Snow Showers,110,2013-11-28 22:55:00
2:55 PM,14.2,6.8,73,30.16,10.0,SSW,9.2,-,N/A,Snow,Light Snow Showers,210,2013-11-28 23:55:00
3:14 PM,14.0,6.8,73,30.16,10.0,WSW,10.4,13.8,N/A,,Mostly Cloudy,240,2013-11-29 00:14:00
3:34 PM,14.0,8.6,79,30.15,10.0,SSW,11.5,-,N/A,Snow,Light Snow Showers,210,2013-11-29 00:34:00
3:55 PM,14.9,9.3,79,30.15,10.0,SW,12.7,-,N/A,Snow,Light Snow Showers,220,2013-11-29 00:55:00
4:55 PM,16.0,10.8,80,30.14,10.0,SW,12.7,-,N/A,Snow,Light Snow Showers,220,2013-11-29 01:55:00
5:14 PM,15.8,10.4,79,30.14,10.0,SW,16.1,-,N/A,Rain,Light Freezing Rain,230,2013-11-29 02:14:00
5:54 PM,17.6,12.2,79,30.14,7.0,SW,16.1,-,N/A,Snow,Light Snow,230,2013-11-29 02:54:00
5:55 PM,16.9,11.5,79,30.14,6.0,SW,13.8,-,N/A,Snow,Light Snow,230,2013-11-29 02:55:00
6:14 PM,17.6,12.2,79,30.14,6.0,SW,15.0,-,N/A,Rain,Light Freezing Rain,220,2013-11-29 03:14:00
6:54 PM,17.6,14.0,86,30.14,4.0,SW,12.7,-,N/A,,Light Ice Pellets,220,2013-11-29 03:54:00
6:55 PM,17.4,14.9,90,30.14,4.0,SW,13.8,-,N/A,,Light Ice Pellets,220,2013-11-29 03:55:00
7:14 PM,17.6,15.8,93,30.14,1.5,SSW,13.8,-,N/A,Snow,Light Snow,210,2013-11-29 04:14:00
7:34 PM,17.6,15.8,93,30.14,2.5,SW,15.0,-,N/A,Snow,Light Snow,230,2013-11-29 04:34:00
7:54 PM,17.6,17.6,100,30.14,4.0,SSW,16.1,-,N/A,Snow,Light Snow,210,2013-11-29 04:54:00
7:55 PM,18.5,17.1,94,30.13,4.0,SW,16.1,-,N/A,Snow,Light Snow,220,2013-11-29 04:55:00
8:14 PM,19.4,17.6,93,30.13,2.0,SW,16.1,-,N/A,Snow,Light Snow,220,2013-11-29 05:14:00
8:34 PM,19.4,17.6,93,30.13,1.8,SW,18.4,-,N/A,Snow,Light Snow,230,2013-11-29 05:34:00
8:54 PM,19.4,17.6,93,30.12,2.5,SW,18.4,-,N/A,Snow,Light Snow,220,2013-11-29 05:54:00
8:55 PM,19.8,18.5,95,30.12,2.5,SW,17.3,-,N/A,Snow,Light Snow,220,2013-11-29 05:55:00
9:14 PM,21.2,19.4,93,30.13,5.0,SSW,16.1,-,N/A,Snow,Light Snow,200,2013-11-29 06:14:00
9:55 PM,19.9,19.4,98,30.12,6.0,South,12.7,-,N/A,Snow,Light Snow,170,2013-11-29 06:55:00
10:14 PM,23.0,21.2,93,30.12,10.0,SSW,16.1,-,N/A,Snow,Light Snow,210,2013-11-29 07:14:00
10:34 PM,23.0,19.4,86,30.12,10.0,West,16.1,18.4,N/A,Snow,Light Snow,270,2013-11-29 07:34:00
10:54 PM,23.0,19.4,86,30.12,10.0,West,16.1,-,N/A,Rain,Light Freezing Rain,260,2013-11-29 07:54:00
10:55 PM,22.6,19.2,87,30.12,10.0,West,17.3,-,N/A,Rain,Light Freezing Rain,260,2013-11-29 07:55:00
11:55 PM,22.1,19.0,88,30.14,10.0,West,11.5,-,N/A,Rain,Light Freezing Rain,280,2013-11-29 08:55:00